Location: Kaikalui
(16.5250°N, 81.1500°E)
Time: 11:12:25
(UTC+00:00)

OAO 3 Rocket - Pass Details

Date: 14 April 2026
Orbit: 612 x 660 km, 35.0° (Epoch: 20 May)

Event Time Altitude Azimuth Distance (km) Brightness Sun altitude
Rises 13:44:47 0° 252° (WSW) 2,886 7.5 -13.5°
Reaches altitude 10° 13:47:12 10° 259° (W) 1,988 6.7 -14.1°
Maximum altitude 13:51:35 42° 331° (NNW) 895 4.2 -15.1°
Drops below altitude 10° 13:56:03 10° 42° (NE) 2,020 5.4 -16.1°
Enters shadow 13:56:43 - 45° (NE) 2,264 5.7 -16.3°
